Find Yaogan 39 03 zu 01 xing

NORAD ID: 57986 Int'l Des: 2023-152 Owner: ZZB Country: CN Constellation: yaogan operational
LEOCIRCULAR

Live-Position

3D-Globus wird geladen...

Über Yaogan 39 03 zu 01 xing

Beschreibung wird geladen...

Nächste Überflüge

Passes for default location (London). Set your location on the main map for personalized predictions.

Höhenverlauf

Loading altitude history...

Zweizeiliger Elementsatz

1 57986U 23152A 26105.85556532 .00000348 00000-0 15990-4 0 9994
2 57986 35.0010 304.5068 0004819 320.5356 39.5007 15.23003609140938
Epoch: 15. Apr. 2026 • Age: 35 hours

Aktueller Status

Höhe 499.4 km
Geschwindigkeit 7.62 km/s
Subsatellitenpunkt 32.70°N, 89.72°E
Startdatum 5. Okt. 2023
Alter 2.5 years
Typ military

Technische Details

Klassifizierung Payload
Masse 300.00 kg
Trockenmasse 300.00 kg
Gesamtmasse 300.00 kg
Länge 2.50 m
Durchmesser 2.50 m
Spannweite 5.00 m
Form Box + 2 Pan
Hersteller DFHZ
Phasenstatus In Orbit
Besitzer/Staat ZZB/CN

Most Searched